Vertical_Velocity
-1 -1 -1 -3 -0 1 -0 0 -1 -0 1 1 -3 -2 2 -1 -2 0 1 -0 1 0 -0 4 6 -3 -8 -21 25 52 26 6 -6 3 -6 -2 4 4 -3 -6 -3 3 2
-1 -1 1 -1 -1 -3 -1 -2 -2 -1 -1 -1 -3 -1 3 1 -1 -5 -1 2 -0 0 -4 2 7 -1 -15 0 -36 -7 -6 31 -8 8 -3 -4 0 -2 1 1 -8 -0 4
-2 -2 1 0 -1 -0 -2 0 1 -1 -0 -0 0 -3 2 1 1 -3 -6 -2 3 3 2 -1 -3 3 14 12 -3 9 5 -15 10 3 7 1 -6 8 8 1 -1 -5 0
-2 -2 -1 1 -1 -2 -0 -0 -3 -0 -2 0 0 -1 -0 2 -0 3 -4 -4 -3 -0 -0 2 1 -8 -22 14 -5 -26 -9 -26 38 46 2 5 -9 16 5 2 -3 -1 -8
-1 -2 -1 -1 -1 -1 -0 1 2 -2 -2 -5 -3 -0 -0 2 -3 1 2 -4 -2 -1 1 -5 4 -5 -1 -5 -7 -3 -2 1 -8 -6 -2 9 -2 8 5 1 -6 -4 -2
0 -1 -1 -0 0 -0 0 0 -2 -0 -1 -3 -3 -3 -4 -3 0 3 0 2 -4 -2 -4 7 -8 6 -6 9 -3 -4 1 -3 -1 -6 -7 -4 -20 20 -2 3 3 -8 -16
-1 -0 -1 -2 -1 -0 -0 1 2 -0 -0 0 -2 -3 -3 0 -2 1 -0 2 2 -2 -1 -4 5 -1 -3 1 -3 3 1 -4 1 8 -23 -12 27 1 11 -5 3 -3 -8
-2 -0 1 -1 -2 -1 -1 -1 0 -1 -1 -1 -0 -0 1 -0 2 -1 -2 -1 1 1 -0 -3 -1 -1 2 2 -5 3 4 3 -7 -2 -8 9 0 23 23 28 5 2 -7
-1 0 -0 -1 -1 -3 -1 -1 -1 1 1 1 -3 -0 0 -3 -1 -1 1 1 -2 -2 1 0 -1 -2 -1 -5 4 6 -2 -3 1 6 -1 5 2 -5 -7 -2 8 -5 -9
-2 -2 0 -1 -2 -1 -1 -0 -1 -1 -0 1 1 -0 3 0 -1 -2 -1 1 -5 2 1 4 -1 -2 -1 -5 0 -3 -3 2 -5 -2 -0 1 -2 -2 8 15 7 0 -2
-2 1 -0 0 -2 -3 -2 0 0 -0 1 2 4 1 -1 1 0 -3 -3 -2 -3 -2 -3 0 0 4 4 1 -2 2 1 -1 -9 -3 2 9 12 -2 10 10 -4 -2 25
-4 -3 -2 -1 -1 -0 -2 -2 1 1 2 2 1 6 2 2 -1 -0 -1 -1 -5 -4 -4 -3 -4 1 4 7 4 -2 1 1 -1 4 -4 -1 -9 2 2 2 7 -0 1
-2 -1 -3 -3 1 -1 -0 1 -1 -1 -2 -1 0 -0 3 4 4 2 -0 1 2 -1 -4 -3 3 3 3 7 8 4 -1 -1 1 3 -10 0 -8 -1 1 -1 -3 -7 7
-1 -3 0 -1 -1 3 -0 -2 0 0 -1 -1 -1 -0 -1 1 4 2 0 1 1 3 2 1 -3 3 5 4 2 3 1 -1 1 -3 0 5 -1 -4 -9 -2 -2 -2 6
-2 1 -2 -2 -2 -4 -3 -2 -2 -2 -4 -4 -2 -5 -3 -1 -6 -5 -2 -2 -3 -4 -6 -7 -1 0 1 1 2 5 1 5 1 6 7 -2 5 11 7 6 7 -4 7
-1 1 1 -2 -1 -2 -2 1 -4 -3 -1 -1 -3 -2 -0 -2 0 1 2 0 2 2 2 3 4 3 1 0 -7 2 -2 4 3 8 6 5 7 3 8 -1 5 2 1
-1 0 -2 -1 -1 0 0 -2 2 0 -4 -2 -3 -2 -2 -4 -1 -2 0 2 2 5 3 -3 1 -4 0 -7 -2 0 1 -4 -1 -0 -2 1 8 10 12 0 2 7 -2
0 -3 -3 -3 3 -2 -1 -1 -1 -2 -2 0 0 -2 -2 -2 -2 1 1 3 11 8 5 6 -2 -2 10 5 6 -3 -6 5 -6 -7 -4 -0 7 11 11 5 10 7 -2
-3 -0 -2 -2 -0 -5 0 0 -1 -1 -1 -2 1 2 2 -1 -2 -7 -6 -2 -1 2 -1 -3 -1 2 3 -4 -2 -1 2 -4 -2 2 -1 -2 -2 -6 0 -8 5 1 2
2 -3 -2 3 -5 -2 -2 -1 0 0 -1 -0 -2 -3 -1 -0 3 3 -3 -3 -3 -7 -4 -1 1 -1 -0 -2 3 6 -1 1 5 3 4 3 1 -2 3 -2 0 -3 -9
-2 -1 0 -3 -2 -0 -2 -1 -2 -1 -1 -2 -1 -1 -3 -1 -2 -2 3 -1 -4 -2 -2 1 1 1 4 9 3 -6 -3 2 -1 2 -0 -1 2 4 -2 -1 -5 -3 -7
-0 -2 -2 -2 -2 -1 -0 -2 -1 -2 -1 -1 0 1 1 -1 -1 1 -2 1 2 -2 2 -3 -3 -1 -0 -3 4 6 4 2 1 2 3 3 0 0 -3 -0 -2 6 1
1 -1 -1 -1 -0 0 -2 -3 -1 -0 -1 -1 -2 -0 1 2 2 1 2 2 -0 1 -0 1 2 -1 0 -0 1 -2 4 3 3 2 -2 -6 -5 -4 3 2 -0 2 -1
-0 -2 -1 -1 -0 -1 -1 -1 -1 -1 -1 -1 -0 -2 -2 -0 1 1 1 2 3 3 0 0 -2 -2 2 2 -3 -2 -2 1 2 1 6 8 -1 -2 -2 -2 -0 -1 7
-2 -1 -0 -1 -0 -0 -1 -1 -0 -2 -2 -1 -2 0 -2 -2 -1 -0 0 0 1 1 2 5 2 2 4 -2 2 3 -2 -4 -3 -4 0 -0 1 3 10 7 7 3 2
-1 -1 -2 -1 -1 -2 -0 0 -1 -2 -1 -1 -1 -3 -1 -2 -2 -0 0 -0 -1 -0 1 2 2 4 1 -1 2 0 1 7 6 0 2 1 -1 -5 2 -5 -5 -4 -5
Height
3066 3058 3051 3045 3039 3033 3028 3024 3019 3015 3011 3005 3000 2995 2992 2991 2987 2983 2981 2980 2983 2988 2995 3003 3012 3019 3024 3028 3032 3046 3056 3061 3072 3083 3091 3100 3104 3110 3117 3121 3127 3135 3141
3063 3055 3049 3042 3036 3029 3024 3019 3014 3010 3006 3001 2996 2990 2988 2985 2983 2979 2975 2974 2975 2979 2984 2992 3001 3009 3017 3026 3024 3034 3042 3051 3061 3075 3082 3088 3095 3101 3107 3115 3119 3125 3132
3061 3053 3047 3040 3034 3027 3021 3016 3011 3006 3001 2998 2993 2988 2982 2981 2979 2976 2971 2969 2970 2971 2975 2981 2991 2999 3008 3015 3022 3025 3031 3041 3055 3066 3074 3079 3085 3093 3099 3103 3109 3115 3123
3058 3052 3045 3038 3031 3025 3020 3014 3008 3002 2998 2994 2990 2986 2980 2977 2975 2972 2970 2966 2965 2966 2967 2972 2981 2988 2995 3002 3006 3017 3026 3028 3036 3047 3060 3070 3075 3083 3088 3094 3098 3105 3113
3057 3050 3043 3037 3030 3024 3018 3013 3007 3001 2995 2991 2987 2983 2979 2974 2971 2968 2965 2963 2962 2963 2965 2966 2973 2979 2988 2995 3002 3012 3019 3024 3029 3033 3043 3058 3063 3070 3076 3084 3089 3096 3104
3056 3049 3043 3036 3030 3024 3018 3012 3006 3000 2994 2989 2985 2981 2979 2974 2969 2965 2962 2959 2958 2959 2961 2963 2965 2970 2978 2986 2992 3000 3009 3016 3021 3027 3031 3041 3055 3061 3069 3074 3080 3085 3090
3055 3048 3042 3036 3030 3023 3017 3011 3005 2999 2994 2988 2984 2980 2976 2973 2967 2963 2959 2956 2954 2953 2954 2957 2959 2962 2969 2974 2981 2989 2999 3006 3011 3017 3023 3027 3040 3052 3060 3066 3070 3075 3083
3054 3048 3041 3035 3029 3023 3017 3010 3005 2999 2993 2987 2983 2978 2974 2970 2965 2962 2958 2954 2951 2949 2948 2950 2952 2954 2958 2964 2971 2978 2988 2996 3000 3007 3015 3022 3027 3035 3045 3053 3063 3068 3073
3053 3047 3041 3035 3029 3023 3017 3010 3004 2999 2993 2988 2982 2977 2972 2969 2964 2960 2957 2954 2951 2948 2946 2945 2945 2947 2949 2956 2962 2969 2977 2984 2989 2993 3002 3009 3016 3024 3031 3039 3045 3052 3057
3053 3047 3041 3035 3029 3023 3017 3011 3004 2998 2993 2988 2983 2978 2972 2967 2963 2959 2955 2952 2950 2948 2945 2942 2941 2941 2942 2946 2954 2961 2966 2972 2978 2984 2991 2998 3004 3011 3019 3025 3035 3039 3045
3053 3047 3041 3035 3029 3023 3018 3011 3005 2999 2994 2989 2984 2978 2973 2967 2962 2958 2954 2951 2949 2948 2944 2942 2939 2938 2938 2939 2943 2950 2956 2961 2967 2976 2980 2986 2991 2999 3004 3010 3017 3024 3030
3053 3047 3040 3035 3029 3023 3018 3013 3006 3000 2995 2989 2985 2979 2974 2968 2963 2959 2954 2951 2948 2947 2944 2941 2939 2936 2935 2936 2936 2939 2945 2951 2957 2964 2969 2972 2980 2984 2991 2997 3004 3010 3017
3052 3046 3040 3034 3029 3023 3018 3013 3008 3001 2996 2990 2985 2980 2974 2969 2964 2960 2956 2952 2948 2946 2944 2941 2939 2935 2933 2930 2929 2931 2935 2940 2945 2950 2957 2962 2967 2973 2979 2984 2989 2997 3005
3052 3046 3040 3034 3028 3023 3017 3012 3007 3003 2997 2991 2986 2981 2975 2970 2965 2961 2956 2953 2949 2946 2943 2939 2937 2933 2930 2928 2928 2928 2930 2932 2936 2941 2945 2950 2956 2961 2968 2973 2978 2985 2991
3052 3045 3039 3033 3027 3022 3016 3011 3007 3002 2997 2992 2986 2981 2976 2971 2965 2960 2956 2952 2949 2946 2943 2940 2937 2933 2930 2927 2926 2924 2926 2928 2929 2932 2935 2940 2945 2948 2955 2961 2965 2973 2977
3051 3044 3038 3032 3026 3021 3016 3012 3006 3001 2997 2993 2987 2982 2978 2972 2968 2964 2959 2955 2951 2948 2945 2940 2937 2933 2930 2927 2926 2925 2924 2923 2926 2926 2928 2930 2933 2938 2943 2947 2952 2958 2963
3050 3044 3037 3031 3024 3019 3014 3010 3007 3002 2997 2993 2989 2984 2979 2974 2970 2966 2962 2957 2952 2949 2945 2941 2937 2933 2931 2929 2928 2925 2922 2922 2922 2921 2924 2925 2926 2927 2927 2934 2940 2945 2951
3049 3043 3035 3029 3023 3019 3014 3009 3005 3001 2998 2994 2990 2985 2981 2976 2972 2967 2963 2960 2956 2950 2945 2942 2939 2937 2934 2930 2926 2924 2924 2922 2921 2921 2921 2920 2919 2918 2920 2926 2929 2933 2939
3047 3041 3034 3028 3022 3017 3013 3008 3003 3000 2997 2993 2990 2986 2982 2977 2973 2969 2965 2960 2955 2951 2947 2943 2941 2938 2934 2933 2931 2929 2926 2925 2923 2921 2920 2918 2917 2916 2916 2919 2923 2927 2930
3045 3039 3033 3027 3020 3015 3011 3007 3004 2999 2995 2992 2989 2985 2981 2978 2974 2970 2965 2961 2957 2954 2950 2946 2942 2939 2937 2935 2933 2930 2927 2926 2924 2920 2918 2918 2917 2918 2918 2918 2919 2921 2923
3044 3038 3032 3025 3020 3015 3010 3006 3002 2998 2994 2991 2987 2984 2980 2976 2972 2969 2965 2962 2958 2955 2952 2948 2945 2941 2938 2934 2930 2928 2927 2925 2923 2921 2918 2917 2916 2914 2914 2916 2917 2920 2922
3042 3036 3030 3024 3019 3014 3009 3005 3000 2997 2993 2990 2986 2983 2980 2976 2973 2968 2964 2961 2958 2955 2952 2948 2944 2941 2938 2935 2933 2929 2926 2923 2922 2921 2919 2917 2915 2913 2914 2915 2914 2915 2916
3040 3035 3029 3023 3017 3013 3009 3004 3000 2996 2992 2988 2985 2981 2978 2975 2972 2969 2965 2961 2957 2954 2951 2948 2945 2942 2938 2936 2933 2930 2927 2925 2921 2918 2917 2916 2916 2915 2914 2913 2912 2911 2912
3039 3033 3027 3022 3016 3011 3007 3003 2998 2994 2990 2986 2983 2980 2976 2973 2970 2967 2964 2960 2957 2953 2949 2947 2944 2942 2938 2934 2932 2929 2927 2925 2923 2921 2919 2916 2915 2914 2913 2911 2910 2910 2910
3035 3030 3026 3021 3016 3010 3006 3001 2997 2992 2988 2984 2981 2978 2974 2971 2967 2964 2962 2959 2955 2952 2949 2945 2942 2939 2937 2935 2931 2927 2925 2923 2921 2919 2917 2915 2914 2912 2911 2909 2907 2906 2905
3033 3028 3023 3019 3014 3009 3004 3000 2995 2991 2987 2983 2979 2975 2972 2969 2965 2961 2958 2956 2953 2950 2947 2943 2940 2936 2933 2931 2930 2927 2924 2921 2919 2917 2915 2912 2910 2909 2907 2903 2903 2902 2901